Find Starlink 36221

NORAD ID: 67215 Int'l Des: 2025-304 Owner: SPXS Country: US Constellation: starlink operational
LEOCIRCULAR

Aktuelle Ansicht

3D-Globus wird geladen...

Über Starlink 36221

Beschreibung wird geladen...

Nächste Überflüge

Passes for default location (London). Set your location on the main map for personalized predictions.

Höhenverlauf

Loading altitude history...

Zweizeiliger Elementsatz

1 67215U 25304Z 26146.27948270 .00002692 00000-0 23336-3 0 9992
2 67215 70.0012 338.9526 0002795 269.6335 90.4504 14.98326771 25508
Epoch: 26. Mai 2026 • Age: 12 hours

Aktueller Status

Höhe 578.7 km
Geschwindigkeit 7.57 km/s
Subsatellitenpunkt -20.91°S, 1.06°W
Startdatum 17. Dez. 2025
Alter 0.4 years
Typ internet

Technische Details

Klassifizierung Payload
Masse 575.00 kg
Trockenmasse 530.00 kg
Gesamtmasse 575.00 kg
Länge 0.30 m
Durchmesser 4.10 m
Spannweite 29.00 m
Form Box + pan
Hersteller SPXS
Bus-Typ Starlink V2MO
Phasenstatus In Orbit
Besitzer/Staat SPXS/US

Most Searched